Terminal Aerodrome Forecast
Issued by NWS

Home | Current Version | Previous Version | Graphics & Text | Print | Product List | Glossary On
Versions: 1 2 3 4 5 6 7 8 9 10 11 12 13 14 15 16 17 18 19 20
000
FTUS43 KBIS 250536
TAFDIK
TAF
KDIK 250536Z 2506/2606 VRB05KT P6SM VCSH OVC050
     FM251100 25011KT P6SM SCT150
     FM251500 26024G35KT P6SM BKN130
     FM260100 28015KT P6SM BKN060=

USA.gov is the U.S. government's official web portal to all federal, state and local government web resources and services.